{"data":{"norad_id":61070,"intl_designator":"2024-164W","name":"STARLINK-32375","alt_names":[],"object_type":"PAYLOAD","status":"ACTIVE","operator":null,"country":"US","launch_date":"2024-09-13","launch_site_code":"AFWTR","launch_vehicle":null,"mission":null,"orbit_class":"UNKNOWN","rcs_meters":null,"size_class":null,"mass_kg":null,"dimensions":null,"purposes":["comms"],"wikipedia_slug":null,"has_3d_model":false,"image_url":null,"decayed_at":null,"tle_current":{"epoch":"2026-05-25T03:53:01.363776Z","epoch_age_seconds":54998,"freshness":"FRESH","line1":"1 61070U 24164W   26145.16182134 -.00000008  00000+0  11865-4 0  9998","line2":"2 61070  53.1611  96.0617 0001318  96.2197 263.8954 15.30191800 95187","mean_motion":15.301918,"eccentricity":0.0001318,"inclination_deg":53.1611,"raan_deg":96.0617,"arg_perigee_deg":96.2197,"mean_anomaly_deg":263.8954,"bstar":1.1865e-5,"rev_number":9518,"period_min":94.105849998673,"perigee_km":474.33627822088,"apogee_km":476.14282828032,"semimajor_km":6853.3765532506,"source":"CELESTRAK","updated_at":"2026-05-25T13:38:19.357678Z"}}}